Location: Unspecified
(0.0000°N, 0.0000°E)
Time: 21:12:51
(UTC+00:00)

ISS - Pass Details

Date: 15 July 2016
Orbit: 401 x 408 km, 51.6° (Epoch: 22 October)

Event Time Altitude Azimuth Distance (km) Brightness Sun altitude
Rises 10:20:41 0° 319° (NW) 2,303 0.0 56.5°
Reaches altitude 10° 10:22:46 10° 315° (NW) 1,452 -0.9 56.9°
Maximum altitude 10:25:58 58° 235° (SW) 479 -3.0 57.5°
Drops below altitude 10° 10:29:14 10° 154° (SSE) 1,479 -1.0 58.1°
Sets 10:31:22 0° 150° (SSE) 2,352 0.0 58.5°
